• In Uzbekistan
  • List of Countries
  • For 7 days
  • Water Temperature
  • Satellite Maps
  • Weather Map
  • Weather Widgets
  • user-avatar
    Login

    Hourly Weather Albany

    Today, 29 May, Monday

    Time Temperature Precipitation Wind Pressure Humidity
    00:00 +12°C° 0 mm 3 mps 765 mmHg 79%
    01:00 +11°C° 0 mm 3 mps 765 mmHg 81%
    02:00 +11°C° 0 mm 3 mps 765 mmHg 84%
    03:00 +11°C° 0 mm 3 mps 765 mmHg 84%
    04:00 +11°C° 0 mm 3 mps 765 mmHg 84%
    05:00 +11°C° 0 mm 3 mps 765 mmHg 85%
    06:00 +11°C° 0 mm 3 mps 765 mmHg 83%
    07:00 +11°C° 0 mm 3 mps 765 mmHg 82%
    08:00 +11°C° 0 mm 3 mps 765 mmHg 81%
    09:00 +13°C° 0 mm 3 mps 766 mmHg 73%
    10:00 +16°C° 0 mm 2 mps 766 mmHg 65%
    11:00 +17°C° 0 mm 2 mps 766 mmHg 58%
    12:00 +18°C° 0 mm 2 mps 765 mmHg 55%
    13:00 +20°C° 0 mm 1 mps 765 mmHg 53%
    14:00 +21°C° 0 mm 1 mps 765 mmHg 50%
    15:00 +19°C° 0 mm 1 mps 765 mmHg 56%
    16:00 +18°C° 0 mm 1 mps 765 mmHg 62%
    17:00 +15°C° 0 mm 2 mps 765 mmHg 67%
    18:00 +15°C° 0 mm 2 mps 765 mmHg 69%
    19:00 +14°C° 0 mm 2 mps 765 mmHg 71%
    20:00 +13°C° 0 mm 3 mps 765 mmHg 72%
    21:00 +12°C° 0 mm 3 mps 765 mmHg 71%
    22:00 +12°C° 0 mm 3 mps 765 mmHg 70%
    23:00 +12°C° 0 mm 4 mps 765 mmHg 68%

    Tomorrow, 30 May, Tuesday

    Time Temperature Precipitation Wind Pressure Humidity
    00:00 +11°C° 0 mm 4 mps 765 mmHg 67%
    01:00 +10°C° 0 mm 5 mps 764 mmHg 65%
    02:00 +10°C° 0 mm 5 mps 764 mmHg 64%
    03:00 +10°C° 0 mm 5 mps 764 mmHg 65%
    04:00 +10°C° 0 mm 5 mps 764 mmHg 65%
    05:00 +10°C° 0 mm 5 mps 763 mmHg 66%
    06:00 +10°C° 0 mm 6 mps 763 mmHg 65%
    07:00 +10°C° 0 mm 6 mps 763 mmHg 65%
    08:00 +10°C° 0 mm 6 mps 763 mmHg 65%
    09:00 +13°C° 0 mm 6 mps 763 mmHg 60%
    10:00 +15°C° 0 mm 5 mps 763 mmHg 55%
    11:00 +16°C° 0 mm 5 mps 763 mmHg 50%
    12:00 +19°C° 0 mm 5 mps 762 mmHg 48%
    13:00 +20°C° 0 mm 4 mps 761 mmHg 45%
    14:00 +21°C° 0 mm 4 mps 761 mmHg 43%
    15:00 +19°C° 0 mm 3 mps 761 mmHg 50%
    16:00 +18°C° 0 mm 2 mps 761 mmHg 57%
    17:00 +16°C° 0 mm 1 mps 761 mmHg 63%
    18:00 +16°C° 0 mm 2 mps 761 mmHg 64%
    19:00 +15°C° 0 mm 2 mps 761 mmHg 64%
    20:00 +14°C° 0 mm 3 mps 761 mmHg 65%
    21:00 +14°C° 0 mm 3 mps 761 mmHg 65%
    22:00 +14°C° 0 mm 3 mps 761 mmHg 64%
    23:00 +14°C° 0 mm 4 mps 761 mmHg 64%

    Day after tomorrow, 31 May, Wednesday

    Time Temperature Precipitation Wind Pressure Humidity
    00:00 +14°C° 0 mm 4 mps 761 mmHg 63%
    01:00 +14°C° 0 mm 4 mps 760 mmHg 63%
    02:00 +14°C° 0 mm 5 mps 760 mmHg 62%
    03:00 +14°C° 0 mm 5 mps 760 mmHg 61%
    04:00 +14°C° 0 mm 5 mps 759 mmHg 60%
    05:00 +15°C° 0 mm 5 mps 759 mmHg 59%
    06:00 +15°C° 0 mm 5 mps 760 mmHg 58%
    07:00 +15°C° 0 mm 5 mps 760 mmHg 58%
    08:00 +15°C° 0 mm 5 mps 760 mmHg 57%
    09:00 +16°C° 0 mm 5 mps 760 mmHg 54%
    10:00 +19°C° 0 mm 5 mps 760 mmHg 51%
    11:00 +20°C° 0 mm 5 mps 760 mmHg 49%
    12:00 +21°C° 0 mm 4 mps 760 mmHg 47%
    13:00 +22°C° 0 mm 4 mps 759 mmHg 45%
    14:00 +23°C° 0 mm 4 mps 759 mmHg 43%
    15:00 +22°C° 0 mm 3 mps 759 mmHg 48%
    16:00 +20°C° 0 mm 3 mps 759 mmHg 53%
    17:00 +19°C° 0 mm 2 mps 759 mmHg 58%
    18:00 +18°C° 0 mm 2 mps 759 mmHg 59%
    19:00 +17°C° 0 mm 2 mps 760 mmHg 60%
    20:00 +17°C° 0 mm 2 mps 760 mmHg 61%
    21:00 +16°C° 0 mm 3 mps 760 mmHg 64%
    22:00 +16°C° 0 mm 3 mps 760 mmHg 66%
    23:00 +16°C° 0 mm 3 mps 760 mmHg 68%

    1 June, Thursday

    Time Temperature Precipitation Wind Pressure Humidity
    00:00 +14°C° 0 mm 3 mps 760 mmHg 73%
    01:00 +14°C° 0 mm 3 mps 760 mmHg 77%
    02:00 +14°C° 0 mm 4 mps 759 mmHg 82%
    03:00 +13°C° 0 mm 4 mps 759 mmHg 84%
    04:00 +13°C° 0 mm 4 mps 759 mmHg 86%
    05:00 +13°C° 0 mm 4 mps 759 mmHg 89%
    06:00 +13°C° 0 mm 4 mps 760 mmHg 89%
    07:00 +14°C° 0 mm 4 mps 760 mmHg 89%
    08:00 +14°C° 0 mm 5 mps 760 mmHg 90%
    09:00 +15°C° 0 mm 5 mps 761 mmHg 83%
    10:00 +17°C° 0 mm 6 mps 761 mmHg 75%
    11:00 +19°C° 0 mm 6 mps 761 mmHg 68%
    12:00 +20°C° 0 mm 6 mps 761 mmHg 64%
    13:00 +21°C° 0 mm 6 mps 760 mmHg 59%
    14:00 +21°C° 0 mm 5 mps 760 mmHg 55%
    15:00 +20°C° 0 mm 4 mps 761 mmHg 59%
    16:00 +20°C° 0 mm 4 mps 761 mmHg 63%
    17:00 +19°C° 0 mm 3 mps 762 mmHg 67%
    18:00 +18°C° 0 mm 3 mps 762 mmHg 69%
    19:00 +18°C° 0 mm 3 mps 763 mmHg 71%
    20:00 +17°C° 0 mm 4 mps 763 mmHg 73%
    21:00 +17°C° 0 mm 4 mps 763 mmHg 76%
    22:00 +15°C° 0 mm 4 mps 763 mmHg 78%
    23:00 +15°C° 0 mm 4 mps 763 mmHg 81%

    2 June, Friday

    Time Temperature Precipitation Wind Pressure Humidity
    00:00 +15°C° 0.3 mm 4 mps 763 mmHg 82%
    01:00 +15°C° 0.3 mm 4 mps 763 mmHg 84%
    02:00 +15°C° 0.3 mm 4 mps 763 mmHg 85%
    03:00 +14°C° 0.1 mm 4 mps 763 mmHg 86%
    04:00 +14°C° 0.1 mm 4 mps 763 mmHg 87%
    05:00 +14°C° 0.1 mm 4 mps 764 mmHg 87%
    06:00 +14°C° 0.1 mm 4 mps 764 mmHg 87%
    07:00 +14°C° 0.1 mm 4 mps 764 mmHg 88%
    08:00 +14°C° 0.1 mm 4 mps 764 mmHg 88%
    09:00 +17°C° 0 mm 4 mps 764 mmHg 80%
    10:00 +19°C° 0 mm 3 mps 764 mmHg 73%
    11:00 +21°C° 0 mm 3 mps 764 mmHg 65%
    12:00 +21°C° 0 mm 3 mps 763 mmHg 62%
    13:00 +22°C° 0 mm 3 mps 763 mmHg 58%
    14:00 +24°C° 0 mm 2 mps 762 mmHg 55%
    15:00 +23°C° 0 mm 2 mps 762 mmHg 58%
    16:00 +20°C° 0 mm 2 mps 762 mmHg 62%
    17:00 +19°C° 0 mm 2 mps 763 mmHg 66%
    18:00 +19°C° 0 mm 3 mps 763 mmHg 69%
    19:00 +18°C° 0 mm 3 mps 763 mmHg 72%
    20:00 +17°C° 0 mm 4 mps 763 mmHg 75%
    21:00 +17°C° 0 mm 4 mps 763 mmHg 78%
    22:00 +15°C° 0 mm 5 mps 763 mmHg 82%
    23:00 +15°C° 0 mm 5 mps 763 mmHg 85%

    3 June, Saturday

    Time Temperature Precipitation Wind Pressure Humidity
    00:00 +15°C° 0 mm 5 mps 763 mmHg 84%
    01:00 +15°C° 0 mm 5 mps 762 mmHg 83%
    02:00 +15°C° 0 mm 5 mps 762 mmHg 82%
    03:00 +15°C° 0.1 mm 5 mps 762 mmHg 84%
    04:00 +15°C° 0.1 mm 5 mps 762 mmHg 87%
    05:00 +15°C° 0.1 mm 4 mps 762 mmHg 89%
    06:00 +15°C° 0.8 mm 4 mps 763 mmHg 91%
    07:00 +15°C° 0.8 mm 4 mps 763 mmHg 92%
    08:00 +15°C° 0.8 mm 4 mps 764 mmHg 93%
    09:00 +15°C° 0.3 mm 5 mps 764 mmHg 90%
    10:00 +16°C° 0.3 mm 5 mps 764 mmHg 86%
    11:00 +16°C° 0.3 mm 5 mps 765 mmHg 82%
    12:00 +16°C° 0 mm 5 mps 765 mmHg 79%
    13:00 +16°C° 0 mm 5 mps 765 mmHg 75%
    14:00 +16°C° 0 mm 5 mps 765 mmHg 72%
    15:00 +16°C° 0 mm 5 mps 765 mmHg 71%
    16:00 +15°C° 0 mm 5 mps 765 mmHg 69%
    17:00 +14°C° 0 mm 4 mps 766 mmHg 68%
    18:00 +14°C° 0 mm 4 mps 766 mmHg 69%
    19:00 +13°C° 0 mm 4 mps 767 mmHg 70%
    20:00 +13°C° 0 mm 4 mps 767 mmHg 71%
    21:00 +13°C° 0 mm 4 mps 768 mmHg 71%
    22:00 +12°C° 0 mm 4 mps 768 mmHg 72%
    23:00 +12°C° 0 mm 3 mps 768 mmHg 72%
    Show more